Location: Caltech
(34.1382°N, 118.1253°W)
Time: 22:35:40
(UTC-07:00)

Daily predictions for brighter satellites

Satellite Brightness Start Highest point End
(mag) Time Altitude Azimuth Time Altitude Azimuth Time Altitude Azimuth
Cosmos 1980 Rocket 4.2 19:53:04 10° SW 19:58:12 34° WNW 20:03:23 10° N
COSMOS 2428 4.5 19:59:10 10° ESE 20:00:10 10° E 20:01:11 10° E
Cosmos 1408 3.6 19:58:51 10° NNE 20:02:03 27° E 20:05:11 10° SE
Envisat 4.4 19:58:33 10° ESE 20:02:10 20° ENE 20:05:49 10° NNE
Cosmos 2242 Rocket 3.9 19:58:27 10° SSE 20:02:45 46° E 20:07:02 10° NNE
Lacrosse 4 Rocket 2.0 19:58:35 10° NNW 20:02:46 45° ENE 20:07:02 10° SE
Helios 1B rocket 3.5 20:02:11 10° NE 20:05:32 24° E 20:08:52 10° SSE
SJ-6B 3.5 20:04:38 10° S 20:08:31 58° W 20:12:30 10° NNW
ERBS 2.7 20:06:06 10° NW 20:09:30 63° SW 20:12:56 10° SSE
ATLAS 5 CENTAUR R/B 3.6 20:06:56 10° N 20:12:00 27° NE 20:17:14 11° ESE
SEDSat Delta rocket 3.5 20:07:47 10° WSW 20:12:34 65° S 20:18:06 10° E
Cosmos 2322 4.4 20:10:11 10° SSE 20:15:12 33° ESE 20:20:14 10° NE
Cosmos 2279 Rocket 4.2 20:11:40 10° SSE 20:17:39 51° E 20:23:38 10° NNE
Cosmos 2195 Rocket 4.5 20:12:40 10° N 20:18:45 65° E 20:24:52 10° SSE
SL-16 R/B 2.7 20:14:40 10° SSW 20:20:17 68° WNW 20:25:57 10° NNE
CZ-2D R/B 3.3 20:16:29 10° SSE 20:20:19 64° ENE 20:24:11 10° N
Intercosmos 25 Rocket 3.1 20:17:14 10° S 20:20:19 56° E 20:24:08 10° NNE
GRACE-1 4.4 20:18:22 10° N 20:21:04 59° W 20:23:44 10° SSW
GRACE-2 4.4 20:18:43 10° N 20:21:25 60° W 20:24:06 10° SSW
Cosmos 1627 Rocket 4.5 20:16:41 10° N 20:22:51 68° E 20:28:55 10° SSE
Resurs 01 Rocket 1.7 20:21:32 10° SSE 20:25:59 86° W 20:30:27 10° NNW
FALCON 9 R/B 0.2 20:27:08 10° W 20:30:01 80° N 20:31:22 20° E
Sakura Rocket 3.6 20:28:26 10° SW 20:31:41 31° S 20:33:51 19° ESE
Cosmos 1315 Rocket 4.3 20:28:38 10° NNW 20:32:23 38° W 20:36:05 10° SSW
Cosmos 1933 3.2 20:35:49 10° S 20:39:49 69° E 20:43:49 10° NNE
ALOS 4.2 20:35:55 10° SSW 20:39:59 30° W 20:44:05 10° NW
OAO 3 Rocket 3.2 20:37:18 10° W 20:42:11 88° S 20:45:28 21° ESE
NOSS 3-1 (C) 4.4 20:41:21 18° SE 20:43:22 21° ESE 20:47:43 10° ENE
Cosmos 2180 Rocket 4.5 20:42:30 10° S 20:48:52 78° E 20:55:12 10° N
USA 229 DEB 3.6 20:42:21 10° SSW 20:49:06 70° ESE 20:55:57 10° NE
USA 229 3.6 20:42:28 10° SSW 20:49:12 69° ESE 20:56:04 10° NE
Meteor 2-10 Rocket 3.8 20:47:54 10° S 20:53:39 64° E 20:59:22 10° NNE
Helios 1A 2.9 20:52:16 17° SSE 20:55:26 85° E 20:59:43 10° N
Cosmos 1733 Rocket 3.1 20:51:03 10° N 20:55:31 84° W 20:59:26 13° S
Okean 1-7 4.1 20:57:49 26° E 20:57:53 26° E 21:01:33 10° NNE
Cosmos 1862 3.4 20:53:58 10° N 20:58:00 77° W 21:01:11 16° S
Cosmos 2219 Rocket 3.5 21:01:36 21° E 21:01:36 21° E 21:04:40 10° NE
Cosmos 1862 Rocket 4.2 20:57:24 10° SSW 21:01:47 57° W 21:06:13 10° N
Milstar 3 3.4 20:56:05 10° W 21:04:05 46° SSW 21:07:27 26° SE
USA 186 3.5 21:05:47 13° SSW 21:07:47 26° W 21:10:18 10° NW
SAR-Lupe-4 4.2 21:11:46 26° SSW 21:13:33 54° W 21:17:05 10° NNW
Meteor 1-26 Rocket 4.2 21:08:35 10° S 21:14:15 83° E 21:20:04 10° N
Cosmos 1939 Rocket 2.9 21:15:13 36° S 21:16:49 80° W 21:20:49 10° NNW
Cosmos 1703 Rocket 3.4 21:20:31 33° S 21:22:30 85° E 21:26:56 10° N
Cosmos 2263 Rocket 2.8 21:19:54 10° NNW 21:25:18 53° WSW 21:28:38 23° S
Cosmos 968 Rocket 3.4 21:22:17 10° NNW 21:27:31 87° ENE 21:29:10 45° SSE
CZ-4B DEB 3.9 21:27:18 34° WSW 21:27:40 35° W 21:30:30 10° NNW
Cosmos 2237 4.4 21:28:30 10° SSW 21:34:12 72° WNW 21:39:56 10° NNE
H-2A R/B 4.1 13:40:10 10° SSW 21:38:18 71° S 21:43:21 35° ESE
Envisat 4.1 21:37:33 18° SSW 21:40:51 39° W 21:45:37 10° NNW
Lacrosse 4 Rocket 4.2 21:38:57 10° WNW 21:41:04 13° WSW 21:43:13 10° SW
Cosmos 2360 Rocket 3.8 21:36:03 10° SW 21:41:10 35° WNW 21:46:21 10° N
MetOp-B 4.1 21:40:39 56° E 21:41:10 59° ENE 21:46:26 10° N
Atlas Centaur 2 2.8 21:35:37 10° W 21:42:20 66° S 21:44:38 46° ESE
COSMOS 2428 2.7 21:37:56 10° SSW 21:43:37 79° WNW 21:49:21 10° NNE
Cosmos 2221 Rocket 3.8 21:46:52 56° SW 21:47:33 66° W 21:51:58 10° N
YAOGAN 11 4.5 21:48:43 54° NNE 21:48:43 54° NNE 21:52:19 10° N
USA 234 3.3 21:46:49 47° ESE 21:48:41 67° NE 21:55:10 10° NW
H-2A R/B 3.2 21:49:47 28° NE 21:49:47 28° NE 21:53:05 10° N
Meteor 1-10 Rocket 4.3 21:48:39 59° ESE 21:48:51 60° E 21:54:37 10° NNE
Cosmos 1867 3.8 21:46:00 10° NW 21:51:22 63° WSW 21:52:15 54° SSW
NOAA 11 4.0 21:52:39 71° SE 21:53:13 81° ENE 21:58:44 10° N
Cosmos 2266 Rocket 4.2 21:47:34 10° N 21:53:52 72° W 21:56:19 40° SSW
ATLAS 5 CENTAUR R/B 3.0 21:50:58 10° NW 21:57:00 54° WSW 21:58:49 41° SSW
NOSS 0 Rocket 4.4 22:00:11 43° ENE 22:00:11 43° ENE 22:04:39 10° NNE
Cosmos 1844 4.3 21:53:24 10° N 21:58:22 41° NE 21:58:22 41° NE
SEDSat Delta rocket 3.9 21:53:37 10° W 21:58:14 52° SSW 21:58:14 52° SSW
ARGOS 3.1 22:00:30 68° ENE 22:00:30 68° ENE 22:05:38 10° N
MOS 1-B Rocket 3.8 22:00:07 65° E 22:00:21 66° ENE 22:05:55 10° N
Cosmos 1570 Rocket 4.3 22:03:09 54° NE 22:03:09 54° NE 22:07:15 10° NNE
ERS-1 Rocket 3.4 22:02:01 49° SW 22:02:43 54° W 22:07:38 10° NNW
SeaSat 1 3.4 22:04:32 36° NE 22:04:32 36° NE 22:08:19 10° N
Meteor 1-25 Rocket 4.1 21:59:23 10° N 22:04:57 78° W 22:05:20 74° SW
H-2A R/B 4.3 22:08:08 16° NNE 22:08:08 16° NNE 22:09:27 10° NNE
Cosmos 2208 Rocket 4.5 22:13:58 54° NNE 22:13:58 54° NNE 22:18:03 10° NNE
Meteor 1-20 Rocket 4.2 22:08:42 10° NNW 22:14:18 74° W 22:14:27 73° WSW
SPOT 5 3.4 22:18:27 55° NW 22:18:27 55° NW 22:22:08 10° NNW
Cosmos 2237 Rocket 3.3 22:22:05 33° NE 22:22:05 33° NE 22:25:13 10° NNE
Cosmos 1244 Rocket 4.4 22:14:52 10° N 22:21:03 84° NE 22:21:03 84° NE
Cosmos 2333 Rocket 2.4 22:23:51 66° N 22:23:51 66° N 22:28:49 10° NNE
Cosmos 1553 Rocket 4.2 22:26:20 61° NE 22:26:20 61° NE 22:31:34 10° N
Meteor 2-6 Rocket 4.4 22:25:54 71° W 22:26:00 71° W 22:31:58 10° N
Cosmos 1844 Rocket 2.9 22:21:18 10° NNW 22:26:05 66° NW 22:26:05 66° NW
Cosmos 2278 Rocket 3.3 22:23:22 10° N 22:27:20 35° NNE 22:27:20 35° NNE
NOSS 3-1 (C) 4.1 22:28:08 10° SW 22:33:37 48° NW 22:39:41 10° NNE
Gbstr 26 Del rocket 4.4 22:27:21 10° SW 22:34:59 87° NW 22:43:12 10° NE
SPOT 1/Viking Rocket 4.3 22:37:50 51° NW 22:37:50 51° NW 22:41:46 10° NNW
CZ-4C R/B 3.3 22:35:07 10° NNW 22:42:12 50° NE 22:42:13 50° NE
Cosmos 2219 Rocket 3.2 22:43:11 38° W 22:44:04 41° WNW 22:49:23 10° N
NOSS 3-1 (A) 4.0 22:49:49 48° WNW 22:50:21 50° NW 22:56:29 10° NNE
ATLAS 2AS CENTAUR R/B 4.4 22:55:31 23° ENE 22:55:31 23° ENE 22:58:32 10° NE
S3M 4.5 22:57:45 55° NW 22:57:45 55° NW 23:02:50 10° N
Terra 3.8 23:02:47 26° NNW 23:02:47 26° NNW 23:04:51 10° NNW
ATLAS 3B R/B 4.4 23:17:30 10° N 23:22:16 20° NE 23:22:22 20° NE
H-2A R/B 4.3 23:30:25 18° WNW 23:30:25 18° WNW 23:32:13 10° NW
Atlas Centaur 2 4.4 23:24:37 10° W 23:27:16 24° WSW 23:27:16 24° WSW
SL-16 R/B 4.1 23:45:56 25° N 23:45:56 25° N 23:48:15 10° NNE
